Theta_e
321 321 321 321 320 321 321 322 322 323 323 322 322 321 319 318 316 315 314 313 310 309 311 312 313 313 314 314 313 313 312 311 311 311 311 311 311 311 311 311 311 311 311 311 311 311 311 311 312 315 317 317 317 318 320 320 320 321 322 323 323 323 324 325 325 326 326 326 327 327 327 327 327 328 328 328 328 328 327 329 330 329 328 328 329
322 321 321 321 320 321 321 322 323 323 323 322 322 321 319 318 317 315 315 313 310 309 310 312 313 313 313 313 313 313 313 312 312 311 311 311 311 311 311 311 311 311 311 311 311 311 311 311 311 313 316 318 318 319 320 320 320 322 323 323 323 323 323 324 324 324 325 325 325 326 327 327 327 327 327 327 327 328 328 329 330 331 330 329 328
321 321 321 321 321 321 321 322 323 323 322 322 322 321 319 318 317 316 315 313 311 309 309 310 312 312 313 313 312 313 313 312 312 312 311 311 311 312 311 311 311 311 310 311 311 311 312 312 311 312 314 317 318 318 319 320 321 322 323 323 324 324 324 324 324 324 325 325 325 326 327 327 327 326 327 327 328 328 328 329 330 331 331 331 329
320 321 321 321 321 321 321 321 322 323 322 322 322 321 319 318 317 316 315 313 311 309 309 310 310 311 311 312 311 312 312 312 312 312 312 311 311 311 311 311 311 311 310 310 311 311 312 313 312 311 312 315 316 317 318 319 320 321 322 323 324 324 325 325 325 325 326 326 326 326 327 326 326 326 326 327 327 328 328 328 329 330 330 330 330
320 320 320 320 321 321 321 321 322 322 322 321 321 320 319 318 317 316 315 313 311 310 309 309 310 310 310 311 311 311 311 312 312 312 311 311 311 311 311 311 311 310 310 310 310 311 312 313 312 311 312 313 315 316 318 319 320 321 322 323 324 324 325 325 326 326 327 327 326 326 326 326 326 326 326 326 327 328 328 328 328 329 329 330 329
319 319 319 320 320 321 321 321 321 321 321 321 320 319 318 318 317 316 314 312 311 310 309 309 310 310 309 309 310 310 311 312 312 312 311 310 310 310 310 311 311 310 310 310 310 312 312 312 311 311 312 313 314 316 318 319 320 320 321 322 323 324 325 325 325 326 327 327 326 326 326 326 326 326 326 327 327 327 328 328 328 328 329 329 329
315 317 319 320 320 320 320 320 320 320 320 320 319 318 318 318 317 316 314 312 311 311 310 310 310 310 309 308 309 310 311 311 312 312 311 310 310 310 310 311 311 310 310 310 311 312 312 312 311 311 312 314 315 316 317 317 318 319 321 322 323 324 324 325 325 325 325 325 326 326 326 326 326 326 326 327 328 328 328 328 328 328 328 328 328
314 318 320 320 320 320 320 320 320 320 319 318 318 318 318 318 317 315 313 311 311 311 310 310 310 309 308 307 308 310 311 311 311 311 311 310 309 309 310 311 311 310 310 309 311 313 313 312 312 313 314 315 315 316 316 317 318 320 321 322 323 323 324 324 324 325 325 325 325 326 326 325 325 325 326 327 328 328 328 328 328 328 328 328 328
315 319 320 320 319 319 318 319 319 319 318 317 317 317 317 317 316 314 312 311 311 311 310 310 310 309 308 306 307 309 310 310 310 310 311 310 309 309 310 311 311 310 309 309 311 313 313 313 314 315 315 316 316 317 317 318 319 320 321 322 322 323 323 324 324 324 324 325 325 325 325 325 325 325 326 327 328 328 328 328 328 328 328 328 327
314 317 318 317 317 316 317 317 318 317 317 317 317 317 316 315 314 313 312 312 311 311 311 310 309 309 308 306 307 308 308 308 309 309 310 310 309 310 311 311 310 310 309 309 310 313 314 313 314 316 316 317 317 317 318 318 319 319 320 321 322 323 323 323 324 324 324 325 325 324 324 325 325 325 326 326 327 327 327 327 328 328 328 328 328
313 314 315 315 315 315 315 316 316 316 316 316 316 316 315 314 314 313 312 311 311 311 310 310 309 309 308 307 307 307 308 308 308 309 309 309 310 311 311 310 310 310 310 309 309 312 314 314 314 315 316 316 317 317 317 317 318 319 320 320 321 322 322 323 323 323 324 324 324 324 324 325 325 326 326 325 326 326 327 328 328 328 328 327 327
314 314 314 314 314 314 314 314 314 314 314 314 314 314 314 314 313 312 311 311 311 311 310 310 309 308 307 306 307 307 308 308 308 308 309 309 311 311 310 309 310 310 309 309 309 311 314 314 314 314 315 315 315 315 316 317 318 318 319 320 321 321 321 322 322 323 323 324 324 325 325 325 325 326 325 324 325 325 326 326 326 326 327 327 327
315 315 315 314 314 314 314 313 313 313 313 313 313 313 313 312 312 312 311 311 311 310 310 310 309 308 307 306 307 307 307 308 309 309 309 309 310 310 309 310 311 310 310 309 309 311 313 314 314 314 314 314 314 314 315 316 317 317 318 319 320 320 320 320 321 322 323 322 323 324 324 324 323 323 323 322 322 322 322 322 322 323 324 325 325
315 315 315 315 315 315 314 314 314 313 313 312 312 312 312 312 312 312 311 311 311 311 310 310 309 308 307 306 307 307 307 308 309 309 309 309 309 309 309 310 311 310 310 309 309 310 312 313 315 316 315 315 315 315 315 316 316 316 316 317 319 320 320 320 320 321 322 322 322 322 322 321 321 320 320 320 320 320 320 320 320 320 321 321 322
317 317 317 316 316 316 315 315 315 315 315 315 314 313 312 312 312 312 311 311 311 311 310 310 309 308 307 307 306 306 307 307 308 308 308 308 308 308 309 311 310 310 310 309 309 310 311 312 314 315 315 315 315 315 315 315 315 316 316 316 318 319 319 319 319 319 321 322 322 322 321 321 320 320 319 319 319 320 320 320 320 321 321 321 321
318 318 318 318 318 317 317 316 316 316 316 316 316 315 314 312 312 312 311 311 311 311 310 310 309 309 308 307 306 306 307 307 307 307 306 307 308 309 310 311 310 310 310 309 309 309 310 313 314 315 315 314 314 314 314 314 314 315 315 315 317 318 318 318 318 319 319 320 321 322 322 321 321 320 320 320 320 320 321 322 322 322 322 322 321
318 318 319 319 319 318 318 317 317 317 316 317 317 317 315 314 312 312 312 311 311 311 311 310 310 309 308 308 307 307 307 307 306 306 305 306 307 309 310 310 310 310 310 309 309 308 310 312 314 314 314 314 314 314 314 314 314 314 314 315 317 319 319 318 318 318 319 319 319 320 321 321 321 320 320 320 320 320 320 321 322 322 321 322 321
318 318 318 318 319 319 318 318 318 317 317 317 317 317 317 315 313 312 312 312 311 311 311 310 310 309 308 307 307 306 306 306 305 304 304 306 308 309 309 310 310 311 310 309 308 309 311 312 313 314 314 314 314 314 313 313 313 313 314 315 317 318 319 318 317 318 317 318 318 318 319 320 319 319 320 321 321 320 320 321 321 321 321 322 322
318 318 318 318 318 319 319 319 318 318 318 318 317 317 317 316 315 313 313 312 311 311 311 310 310 309 306 305 305 305 305 305 304 305 306 307 308 308 308 309 310 310 310 309 308 309 311 313 313 314 314 314 314 313 313 313 313 313 314 315 316 317 318 318 317 317 316 317 318 318 319 318 318 319 321 321 321 321 320 321 321 321 321 322 322
318 318 318 318 318 319 319 319 319 318 318 318 318 317 317 317 316 315 314 313 312 311 311 311 310 308 304 304 305 305 305 305 306 307 308 308 308 308 308 309 310 310 309 308 308 309 311 312 313 313 313 313 313 313 313 312 312 313 314 315 316 317 318 318 317 316 316 316 317 318 318 319 319 320 320 320 320 320 319 319 320 319 320 321 322
318 318 318 318 318 318 318 319 319 319 319 318 318 318 317 317 317 316 315 314 313 312 311 311 310 307 304 305 306 306 306 306 307 308 309 309 309 309 309 309 309 309 308 308 308 309 310 311 312 312 312 312 312 312 312 312 312 313 314 315 316 317 318 318 316 315 316 316 317 317 318 318 319 319 319 318 317 317 317 317 317 317 318 321 322
318 318 318 318 318 318 318 318 318 319 319 319 318 318 318 317 317 316 315 314 313 313 312 311 311 308 304 304 306 306 307 307 307 308 309 309 309 309 309 309 309 307 307 307 308 308 308 309 310 310 310 311 311 311 311 311 312 313 315 316 316 316 317 317 315 315 316 316 317 318 318 319 319 318 317 316 314 314 314 314 314 315 316 318 319
318 318 318 318 318 317 317 317 318 319 319 319 319 318 318 317 317 317 316 315 314 314 313 312 311 309 306 304 304 304 305 305 306 306 306 307 308 309 309 309 308 307 306 307 307 306 307 308 309 309 309 309 310 310 310 311 312 313 315 316 316 317 317 316 315 315 316 316 317 319 319 319 318 316 314 314 313 314 314 313 313 313 314 316 317
318 318 317 317 317 317 317 317 318 318 319 319 319 319 318 318 317 316 316 315 314 314 313 313 311 310 307 305 304 303 303 304 305 305 304 304 305 307 308 308 308 307 306 307 306 306 307 309 310 310 309 309 309 310 310 311 312 314 315 316 316 316 316 315 315 315 316 316 316 317 317 317 316 314 314 315 315 315 315 314 313 313 314 316 318
318 318 318 318 318 317 317 317 317 318 318 319 319 319 319 318 317 317 316 315 314 313 313 313 312 311 309 307 305 304 305 305 306 306 305 304 304 306 308 308 308 307 307 307 306 306 308 309 310 310 310 310 310 310 310 311 313 315 316 316 316 315 315 315 315 316 316 316 315 315 315 315 315 315 315 315 315 315 315 314 314 314 314 316 318
318 318 318 318 318 318 318 318 318 318 318 319 319 319 319 318 318 317 317 316 315 313 313 314 313 311 310 309 307 306 306 306 306 306 306 305 303 304 306 308 308 307 307 307 306 306 307 308 309 309 309 310 310 310 311 312 314 316 316 316 315 315 315 315 315 316 316 316 316 315 314 314 315 315 315 314 314 315 315 314 314 315 315 317 318
317 317 317 318 318 318 318 318 318 318 318 318 318 318 318 318 318 317 317 317 315 314 314 314 314 312 311 310 309 307 307 307 307 306 306 306 304 304 305 307 308 308 307 307 306 306 306 307 308 308 308 308 309 311 312 314 314 314 315 315 315 314 314 314 315 315 316 315 315 314 314 314 314 313 313 313 314 314 314 314 314 315 316 317 318
316 316 317 318 318 318 318 317 318 318 317 318 318 318 318 318 318 318 318 317 316 314 313 314 314 312 312 311 310 309 308 308 307 307 306 306 306 304 303 306 308 308 307 307 306 306 306 306 307 307 308 309 309 310 313 314 314 313 314 314 315 314 313 314 314 315 315 315 314 313 313 312 311 310 310 311 312 313 314 313 313 314 315 316 317
316 317 317 318 317 317 317 317 317 317 318 318 317 317 318 318 318 318 318 317 316 315 314 314 313 312 312 312 311 310 310 309 308 307 307 307 307 304 302 303 307 309 308 307 306 306 306 306 305 305 308 309 310 310 312 313 313 314 314 314 314 314 314 314 313 314 314 313 312 311 311 310 310 309 308 307 309 311 310 310 312 314 313 314 315
316 317 317 317 317 317 317 317 317 317 317 317 316 317 317 317 317 317 317 317 317 316 315 314 314 313 312 312 312 311 311 310 309 308 307 306 306 305 301 301 304 308 309 308 307 306 306 306 306 304 305 307 307 308 310 311 312 313 314 313 313 313 313 313 313 313 314 312 310 309 308 309 309 308 305 303 304 306 305 305 307 309 309 310 313
315 316 316 316 317 317 316 316 315 315 314 314 316 317 317 317 317 317 317 317 317 317 316 315 315 314 313 313 313 312 312 311 310 309 308 307 306 304 301 299 302 306 309 309 307 306 306 306 306 305 304 304 303 303 305 309 312 312 312 312 313 313 313 313 312 312 313 312 309 307 306 307 306 305 303 301 301 300 299 298 300 302 304 308 311
314 315 315 316 316 315 314 314 314 313 311 312 316 317 317 317 316 316 316 317 316 316 316 316 316 315 314 314 314 313 313 312 311 310 309 307 305 304 302 299 300 304 308 309 308 306 305 306 307 306 305 304 303 301 302 306 310 312 312 312 312 312 312 312 312 311 311 310 308 306 305 305 304 303 302 301 300 299 297 296 297 300 304 307 308
314 313 314 314 315 314 314 315 315 312 310 310 312 315 316 317 317 316 315 316 315 316 316 316 316 316 315 315 314 314 313 312 312 312 311 308 306 304 303 301 300 302 305 307 307 305 304 305 306 307 306 304 303 301 301 303 307 311 312 312 312 312 312 311 311 311 310 308 305 304 304 303 303 302 302 301 301 300 298 296 296 299 302 304 305
313 313 313 314 315 315 316 315 314 311 309 308 309 311 314 316 316 316 316 316 315 315 315 315 315 315 315 315 315 314 313 313 312 312 312 310 307 305 305 304 301 300 301 303 304 304 303 304 306 307 306 305 303 302 301 302 306 311 312 311 311 310 310 309 309 311 311 308 304 303 303 302 302 302 302 301 301 300 298 296 296 297 299 300 301
313 314 314 314 315 315 315 314 312 310 309 308 309 311 313 315 315 316 316 315 315 315 314 315 315 315 315 315 315 314 314 314 313 313 312 311 308 307 307 307 305 302 299 299 301 302 302 303 305 306 307 306 303 302 302 302 305 309 309 308 307 306 306 306 307 308 309 307 304 302 302 301 301 301 301 301 301 299 298 297 296 296 297 297 299
314 314 314 314 315 315 314 313 312 311 310 309 310 311 313 314 313 313 312 312 312 312 311 312 314 315 315 315 315 315 315 314 313 313 313 311 309 307 308 309 308 305 301 299 299 300 301 302 304 306 307 306 303 302 302 302 304 306 305 305 304 304 304 305 305 305 306 305 303 302 302 301 301 301 301 301 300 299 298 297 296 296 297 297 298
315 315 315 315 315 314 313 313 313 313 312 310 310 310 311 310 310 309 308 308 309 309 309 310 312 313 314 315 315 315 315 315 314 314 313 312 310 308 309 309 309 307 303 300 299 299 299 301 303 305 306 306 303 302 302 302 302 303 303 302 303 303 303 303 303 303 303 302 301 301 301 301 301 301 300 300 299 298 298 297 296 295 296 296 297
315 315 315 315 314 314 313 313 314 314 313 311 309 309 309 309 308 308 308 308 308 308 308 310 311 312 313 314 315 315 315 314 314 314 313 312 311 310 308 308 308 307 304 301 300 298 298 299 303 305 306 305 303 302 301 301 301 301 301 301 301 302 302 302 302 302 301 301 300 300 300 300 301 300 300 300 299 298 298 298 297 296 295 295 296
315 316 315 315 314 313 313 314 315 315 314 311 310 310 310 310 310 310 310 309 308 307 308 309 310 312 313 314 314 315 315 314 314 314 313 312 311 310 308 308 308 307 305 303 302 301 298 298 301 305 306 305 303 302 302 301 301 301 301 301 301 301 301 302 301 301 301 301 300 301 300 300 300 300 300 299 299 299 298 298 298 298 297 297 296
315 315 315 314 314 314 314 315 315 315 314 312 310 310 311 311 311 312 311 311 309 308 308 308 310 312 313 314 314 314 314 314 314 314 313 313 312 309 308 307 307 306 304 304 304 304 301 298 299 303 306 304 302 302 302 301 301 301 301 301 301 301 301 301 301 301 301 301 301 301 301 300 300 300 299 299 299 299 299 299 299 298 298 298 298
315 315 315 314 314 315 315 315 315 315 314 312 311 311 312 312 312 312 312 311 310 308 308 308 310 312 313 313 313 313 313 314 314 313 313 313 312 310 308 308 307 306 304 303 304 304 302 299 298 301 304 304 302 302 302 302 301 301 301 301 301 301 301 301 301 301 301 301 301 301 301 300 300 300 299 299 299 299 299 299 299 299 298 298 298
315 314 314 314 315 315 315 315 315 315 314 312 312 312 312 312 312 313 312 311 310 309 308 309 310 312 312 312 312 312 312 313 313 313 313 313 312 311 310 309 309 307 305 303 303 304 303 300 298 299 301 303 303 302 302 302 302 302 301 301 301 301 301 301 301 301 301 301 301 301 301 301 301 300 299 299 299 299 299 299 299 299 299 298 298
315 315 314 315 315 315 315 315 315 315 314 313 312 312 312 313 313 313 312 312 310 309 309 310 311 312 311 311 311 311 311 311 312 313 313 313 312 312 311 310 309 308 305 304 303 303 303 303 301 299 299 301 303 303 302 302 302 302 302 302 302 302 301 301 301 301 301 301 301 301 301 301 301 300 300 300 299 299 299 299 299 299 299 299 299
315 315 315 315 315 315 316 316 315 315 315 313 312 313 313 313 313 313 312 312 310 309 309 310 311 311 311 311 310 310 310 310 311 312 312 313 312 312 311 310 309 309 308 306 305 305 305 305 303 301 299 299 301 303 303 303 303 303 302 302 302 302 302 302 301 301 301 301 301 301 301 300 300 300 299 299 299 300 299 299 299 299 299 299 299
316 315 315 315 315 315 316 316 315 315 314 313 313 313 313 313 313 313 313 312 310 309 310 311 311 311 311 310 310 310 310 310 311 311 312 312 312 311 311 311 310 309 309 309 308 308 308 306 305 303 301 299 299 302 303 303 303 303 303 302 302 302 302 302 302 302 301 301 300 300 300 300 300 300 300 300 300 300 300 299 299 299 299 299 299
316 316 315 315 315 315 315 315 315 315 314 314 313 313 313 313 313 313 312 311 309 309 310 311 311 311 310 310 310 310 310 311 311 311 312 312 312 311 311 311 310 309 309 310 310 310 309 306 304 304 303 301 299 300 302 303 303 303 303 303 302 302 302 302 302 302 301 301 300 299 300 300 300 300 300 300 300 300 300 300 300 299 299 299 299
316 315 315 315 315 315 315 315 315 315 314 314 314 314 314 313 314 313 311 310 309 310 311 311 311 311 311 310 309 309 309 310 311 311 311 311 312 311 310 310 309 309 309 310 310 310 309 307 304 304 305 304 301 300 300 302 303 304 303 303 303 302 302 302 302 302 302 301 300 299 300 301 301 301 300 300 300 300 301 301 300 299 298 298 298
315 315 315 315 315 315 314 314 314 314 314 314 314 314 313 314 313 312 310 308 309 310 311 311 311 311 310 309 309 308 308 309 311 311 311 311 311 311 310 310 309 309 308 309 309 310 309 308 306 305 305 305 304 302 301 301 302 303 304 304 303 302 302 302 302 301 302 302 302 301 301 302 301 301 301 300 300 301 301 301 300 299 298 297 298
315 315 315 314 314 314 313 313 313 313 314 314 313 313 313 313 312 310 308 308 310 311 311 311 311 310 310 309 309 308 308 308 310 311 311 311 311 311 311 310 310 309 309 309 309 309 308 308 308 307 306 305 305 304 303 301 300 302 303 304 303 303 302 302 302 302 301 302 302 302 302 302 302 301 301 301 301 302 302 301 300 299 299 299 300
315 315 315 314 314 313 313 313 313 314 314 313 312 313 313 311 309 307 307 309 310 311 311 311 311 310 309 309 309 308 308 308 308 309 310 311 311 311 311 311 311 310 310 310 310 309 308 308 308 308 307 306 305 304 304 302 300 300 302 304 304 303 303 303 303 302 302 302 302 303 303 303 302 302 301 301 302 302 302 301 300 300 300 301 301
315 315 314 314 314 313 313 313 313 313 312 311 311 311 310 308 307 307 308 310 310 311 311 311 310 310 309 309 308 308 308 307 307 307 308 308 309 309 310 311 311 311 311 310 310 310 309 308 307 306 307 306 305 304 304 303 301 299 301 303 304 304 303 303 303 303 302 302 302 303 303 303 303 302 302 302 302 302 302 301 300 301 302 302 302
Wind_Speed
7 7 7 8 9 9 10 11 12 14 15 15 16 15 13 15 16 16 17 17 18 18 13 10 9 10 11 12 13 14 13 13 14 15 14 12 11 12 12 14 15 16 16 15 15 16 16 16 16 15 15 16 16 16 15 17 19 19 17 16 17 17 17 19 21 24 24 23 23 23 22 21 20 20 19 19 20 20 20 20 20 22 23 24 25
6 7 8 10 10 10 11 12 12 13 14 15 16 14 13 15 16 16 16 16 18 18 13 11 10 11 11 12 14 14 13 13 13 14 14 13 13 14 14 16 17 17 18 18 18 18 17 16 15 15 16 15 14 13 14 16 18 19 16 16 17 18 17 19 21 23 24 23 23 24 23 22 22 22 20 20 20 21 22 20 19 20 23 24 23
7 9 10 11 12 12 13 13 13 13 14 15 15 14 13 15 16 16 16 16 18 17 14 12 11 11 11 12 14 14 14 13 13 13 13 14 14 15 15 17 18 19 20 21 21 20 18 17 15 15 16 16 14 14 15 15 15 18 17 17 19 21 21 21 22 23 23 23 24 24 24 24 24 22 21 19 20 21 23 22 19 19 21 22 22
10 11 11 12 12 13 14 14 14 14 14 14 14 13 13 15 16 16 15 16 17 17 15 13 12 12 12 13 14 14 14 14 13 12 12 13 14 15 15 16 18 19 21 22 23 23 20 17 14 13 16 17 17 16 16 15 15 18 19 19 20 20 20 20 20 22 23 23 24 24 23 24 25 23 21 20 20 21 23 24 22 20 19 20 21
12 13 13 14 14 13 13 13 13 13 13 13 13 12 13 15 16 16 15 16 17 16 15 15 14 13 13 14 14 14 14 14 14 12 12 14 15 15 15 16 18 19 20 22 23 23 22 18 14 13 14 16 17 16 15 15 15 17 19 19 19 19 18 18 18 19 20 20 23 24 24 24 25 25 23 20 19 20 22 24 24 23 21 20 20
13 13 13 13 13 11 10 10 10 10 11 11 11 12 13 15 16 15 15 16 17 16 15 16 15 15 15 16 16 15 14 14 14 13 14 15 15 15 15 16 17 18 19 21 21 21 21 17 12 10 12 14 15 15 14 13 14 17 18 19 19 18 18 17 17 19 21 21 22 23 23 23 24 24 22 20 19 20 21 22 24 24 24 23 22
12 11 11 9 8 7 6 7 7 8 9 9 10 12 13 15 16 15 15 16 17 17 16 16 16 16 17 18 17 16 16 15 14 14 15 15 16 16 15 15 16 17 18 19 19 19 18 15 10 8 9 11 14 15 15 15 17 19 19 18 18 17 17 16 16 17 19 21 21 21 22 22 21 20 20 19 18 19 20 21 23 23 24 24 24
8 7 7 5 4 4 5 6 7 7 8 9 10 12 14 15 15 14 15 16 17 17 16 16 17 17 18 19 18 17 16 16 15 15 15 15 16 16 14 14 15 17 18 18 17 16 14 11 8 7 8 11 15 16 15 15 17 19 18 16 16 16 16 16 16 16 17 19 20 20 20 21 20 19 19 18 18 19 19 20 22 22 23 24 24
6 5 5 4 4 4 5 5 6 7 8 9 10 12 13 14 15 15 15 16 17 17 16 17 17 18 19 20 18 16 16 16 16 15 15 16 16 15 13 14 15 17 19 18 16 13 10 8 8 8 9 10 12 13 13 15 17 18 17 16 15 15 15 16 16 17 17 17 18 19 20 21 22 22 20 19 19 19 18 19 21 22 22 24 24
5 4 5 4 4 3 4 4 6 7 8 9 10 11 12 14 14 15 15 16 16 16 16 17 18 19 20 20 17 15 15 15 15 14 15 15 15 13 13 14 15 17 19 18 16 12 7 6 7 8 9 10 10 11 13 16 17 17 17 17 15 15 15 15 15 15 15 16 17 18 19 21 22 21 20 19 18 18 17 18 21 21 21 23 24
5 4 4 4 3 4 5 5 6 7 8 9 10 11 12 13 14 14 14 15 16 16 16 17 17 18 20 19 17 15 15 15 14 13 13 13 13 13 13 14 15 17 18 19 17 12 7 6 8 9 10 11 12 12 13 14 15 15 15 15 15 15 15 15 15 15 15 15 15 16 15 15 15 16 16 16 16 16 16 16 18 20 21 22 23
5 4 4 4 4 5 6 7 7 8 8 9 10 11 12 12 13 13 13 14 15 15 16 17 17 18 19 18 16 15 16 14 12 12 12 12 13 14 14 15 16 16 17 18 17 12 9 8 9 10 12 14 15 16 15 14 13 13 13 13 14 14 15 15 15 14 14 12 12 12 12 12 12 12 13 13 13 13 13 13 15 17 18 20 22
6 5 5 5 5 6 7 8 8 8 9 10 10 11 11 12 12 12 13 13 14 15 16 16 17 18 18 17 15 14 14 12 11 11 12 12 13 14 14 15 17 17 17 18 17 13 10 9 10 10 12 15 16 17 17 15 14 13 12 12 13 13 13 14 14 14 13 11 10 10 10 10 10 10 11 10 10 11 11 12 12 14 15 16 18
6 7 7 7 7 7 8 8 8 8 9 10 11 11 11 12 12 12 13 13 14 15 16 16 17 17 17 17 16 14 13 12 12 13 13 13 13 14 15 17 18 17 16 18 18 13 10 10 11 10 10 13 14 15 15 15 14 14 13 13 13 12 11 12 12 13 14 13 13 12 11 10 10 11 11 11 11 12 13 13 13 13 14 15 15
7 7 7 8 8 8 8 9 8 8 9 10 11 12 12 12 12 12 13 13 14 15 16 17 17 17 17 17 17 15 13 12 13 13 15 15 14 14 16 17 17 16 16 18 18 14 11 11 11 10 10 12 14 15 14 14 14 14 13 13 13 10 9 10 10 11 13 15 17 16 13 11 11 12 12 12 11 11 11 12 12 13 13 14 14
8 8 9 9 9 9 9 9 9 9 9 10 11 11 12 12 12 12 13 14 15 15 16 17 17 18 17 17 17 17 15 14 14 15 16 16 14 15 17 17 17 16 17 19 18 14 11 11 11 10 10 12 14 16 16 15 14 14 13 13 12 9 8 9 9 9 10 13 16 17 15 13 13 12 11 10 9 7 6 7 8 8 9 11 12
11 11 11 11 11 11 11 11 10 10 11 11 11 12 12 12 12 13 13 14 15 16 16 17 18 18 18 17 17 18 17 15 15 17 17 15 14 16 17 17 18 18 18 20 19 14 11 11 11 11 11 12 13 15 16 16 15 15 14 13 10 6 8 11 11 10 10 11 13 14 14 13 12 10 9 9 7 5 5 5 5 5 6 8 10
13 13 13 12 12 13 13 13 12 12 12 12 12 12 13 12 12 12 13 14 15 16 16 17 18 19 19 18 17 17 16 16 16 17 15 14 14 16 17 18 19 19 19 21 19 13 11 12 12 11 11 12 13 14 15 15 15 15 14 12 8 6 7 10 12 13 12 10 10 9 9 9 10 9 8 7 6 5 5 5 4 5 6 7 7
15 15 14 13 12 13 15 15 15 14 14 13 13 13 14 13 12 12 13 14 15 15 16 18 19 19 18 17 15 15 15 15 15 13 12 12 14 16 18 19 20 20 20 21 20 13 10 12 13 13 11 11 13 14 15 15 15 15 14 12 10 8 8 9 12 13 10 7 6 6 7 8 9 8 5 3 4 4 3 2 2 3 6 6 5
16 16 16 15 14 15 15 16 16 16 15 14 14 15 15 14 13 12 13 14 15 16 16 17 19 19 17 14 12 12 13 14 14 12 11 12 14 17 19 19 19 19 21 21 20 14 10 12 13 13 13 13 15 15 15 16 16 15 15 13 12 11 9 10 13 12 7 4 4 5 7 8 8 6 4 2 2 2 1 2 2 3 5 4 3
18 17 16 15 15 16 16 16 17 16 16 16 16 16 16 16 15 14 14 14 15 16 17 17 18 18 15 13 11 11 12 15 14 12 13 14 16 18 19 17 17 19 21 20 18 14 12 13 14 14 15 17 18 18 17 16 16 16 15 13 14 13 10 10 13 12 6 5 4 4 5 6 6 5 3 2 1 1 2 2 3 3 4 3 3
18 16 15 15 15 16 16 16 16 16 16 16 16 16 16 17 16 16 15 15 15 16 17 17 18 17 15 13 13 13 13 15 15 14 15 15 17 18 16 15 16 19 19 17 15 14 14 15 16 17 19 20 20 18 17 16 16 16 14 13 15 14 11 10 13 9 5 6 5 5 5 5 5 3 2 1 0 1 2 3 3 3 3 3 4
14 15 15 16 16 16 16 15 15 15 15 15 16 16 17 18 18 17 17 16 16 16 17 17 17 17 15 14 13 13 12 13 14 14 15 15 15 16 14 13 15 17 16 14 13 14 16 17 17 18 19 21 21 19 17 16 14 14 14 15 15 12 10 10 10 5 6 6 6 8 8 7 5 3 2 2 0 1 2 3 4 3 2 2 2
14 15 15 16 15 15 15 14 14 14 14 15 15 16 16 18 19 19 19 19 18 17 17 16 16 16 15 14 13 10 9 10 11 12 13 14 14 14 13 12 13 15 14 13 13 16 18 19 17 16 16 17 18 16 14 13 11 12 13 13 11 8 7 6 6 5 4 5 6 7 7 7 6 4 3 1 2 3 3 3 3 4 4 3 3
15 16 16 15 13 13 14 14 14 14 14 14 15 15 16 18 19 20 20 20 20 19 17 17 17 17 16 15 13 10 9 10 12 13 14 14 13 13 12 12 12 13 13 12 13 15 18 20 18 14 13 13 12 11 9 8 9 11 9 5 3 6 5 5 6 4 2 3 5 4 5 6 6 4 2 1 3 4 3 3 3 4 5 6 6
17 16 15 14 13 12 13 13 14 14 14 14 15 15 16 17 18 20 21 21 21 20 18 17 17 17 16 15 14 12 12 13 14 15 15 16 14 12 12 12 12 12 12 12 13 14 17 19 17 12 11 11 9 7 6 6 7 9 7 3 5 7 6 6 7 5 2 1 2 3 4 4 4 3 2 3 3 4 3 3 4 6 7 6 6
16 15 14 13 12 13 13 13 13 13 13 14 14 15 15 16 17 19 20 21 21 21 20 18 17 16 16 16 15 14 14 15 15 15 16 17 16 13 11 12 12 11 10 11 12 12 14 16 14 13 13 12 7 4 5 7 7 5 4 2 3 5 5 4 5 6 5 4 4 3 3 2 2 2 3 4 3 3 3 5 5 7 7 5 5
14 13 13 13 14 14 14 14 13 12 12 13 13 14 15 15 16 17 17 19 20 20 21 21 19 17 16 16 15 15 15 14 14 15 16 17 17 15 13 12 12 11 10 10 12 12 12 12 11 11 13 12 7 4 3 5 6 3 1 1 3 3 3 3 2 3 5 6 5 4 3 2 2 3 4 5 3 2 3 5 5 6 7 5 6
13 13 14 15 15 14 13 13 13 12 13 13 13 14 14 15 16 16 16 17 18 18 20 22 22 21 18 16 14 14 14 14 14 15 17 18 18 17 15 13 13 13 12 11 11 12 11 11 10 9 10 10 8 7 5 4 4 5 5 4 4 4 4 3 2 2 4 5 5 4 3 3 3 3 4 3 2 2 4 5 4 5 5 5 8
14 15 15 14 13 11 11 12 12 13 14 15 15 15 14 14 15 15 15 15 15 16 18 20 22 24 22 19 16 15 15 15 15 16 17 17 17 17 16 13 13 13 14 13 12 12 12 12 10 9 10 11 10 8 7 6 5 7 8 6 4 5 6 5 2 2 3 4 4 5 4 3 3 3 4 3 2 3 5 5 5 5 4 5 10
15 15 13 11 10 10 11 12 12 14 14 14 14 14 13 13 13 13 14 14 13 14 16 17 19 22 23 22 21 19 17 16 17 17 17 16 16 16 15 14 13 14 16 16 15 13 13 13 12 10 9 10 10 10 9 7 7 8 9 9 9 9 9 8 5 3 4 5 5 5 4 3 3 3 3 3 3 4 6 7 5 5 5 8 12
14 13 11 10 10 11 11 12 13 14 13 12 13 13 13 13 13 12 12 13 13 13 14 16 17 19 20 21 21 20 19 18 18 18 18 17 16 15 14 14 14 15 17 18 18 15 14 14 15 13 11 10 10 10 11 9 8 9 10 10 10 9 7 8 7 5 5 7 7 6 5 4 3 3 3 3 3 4 6 7 6 6 8 11 13
14 12 11 10 11 12 12 13 14 14 13 12 12 13 14 14 14 14 14 13 13 13 14 14 16 17 17 18 18 19 18 18 18 19 19 18 17 16 16 15 15 15 17 19 19 17 15 14 16 15 13 11 10 10 11 11 9 9 9 7 7 5 5 6 6 6 7 9 8 7 6 6 5 4 4 4 4 4 5 6 7 8 11 13 15
14 13 11 11 12 13 14 14 14 14 13 13 13 13 14 14 15 15 16 16 15 15 14 14 14 15 15 15 16 16 17 17 18 18 18 19 19 19 17 17 16 16 17 18 19 19 16 15 16 16 15 13 11 11 11 11 10 8 6 5 5 6 5 5 6 7 9 10 10 8 7 7 7 7 6 5 4 4 5 6 7 9 11 14 16
15 14 14 14 14 14 15 14 12 11 12 12 12 12 13 14 15 15 16 17 18 18 17 16 16 15 15 14 15 15 16 17 18 18 19 19 19 19 19 18 17 16 16 16 18 18 16 15 16 17 17 14 12 11 11 10 9 6 5 6 6 6 6 5 6 7 9 10 10 9 9 9 9 8 7 5 4 4 5 6 8 10 11 13 16
16 16 15 14 14 14 13 11 9 9 11 11 12 13 13 14 15 15 16 17 18 18 19 18 18 18 17 16 15 15 15 16 17 19 19 19 19 20 20 20 19 17 16 16 16 16 15 15 16 18 18 15 13 12 11 10 8 7 7 7 8 7 6 6 5 6 8 9 9 9 10 9 8 8 8 7 5 4 5 7 9 10 11 13 15
16 15 15 14 14 13 11 9 8 9 11 11 12 13 12 12 13 13 15 16 17 17 18 18 18 19 19 18 17 16 16 16 17 18 19 19 20 22 23 21 20 18 17 16 15 15 15 15 16 18 18 16 14 12 11 9 8 8 8 8 8 7 7 7 7 7 8 9 9 9 10 9 8 8 9 9 7 5 5 8 11 12 12 13 14
15 15 15 15 13 11 10 9 9 10 11 12 12 11 10 10 11 12 13 15 16 18 18 18 18 19 19 18 17 17 16 16 16 17 17 18 19 22 23 22 20 19 17 15 14 15 15 15 16 18 18 17 15 13 11 9 9 8 8 7 7 7 7 8 9 9 10 10 9 8 8 9 9 9 9 9 8 6 6 9 11 12 13 13 12
15 15 15 14 12 11 10 10 11 11 12 12 11 10 9 10 11 12 14 15 17 18 19 19 19 19 19 18 18 17 17 16 16 16 15 15 17 19 21 21 20 19 17 15 13 13 14 15 15 17 18 18 16 14 12 11 11 10 9 9 9 8 7 8 9 9 11 12 10 8 7 7 8 10 10 10 8 6 7 9 9 10 11 12 11
15 15 15 13 12 11 11 12 13 13 12 12 11 10 10 10 12 13 15 16 17 18 19 20 20 19 18 18 18 18 18 18 18 17 16 15 15 17 19 19 19 17 16 15 14 13 13 14 15 17 19 19 17 15 14 13 13 12 11 11 11 10 9 9 8 8 9 11 12 11 9 8 8 10 11 10 8 6 7 8 8 8 8 9 9
15 15 15 14 13 13 14 14 15 14 13 12 11 10 10 11 13 15 16 17 18 19 19 19 19 18 17 18 18 19 20 21 21 20 18 17 15 15 17 18 18 17 15 14 13 13 13 14 15 16 19 20 19 17 16 14 14 14 13 12 12 12 12 11 11 10 9 10 12 13 12 11 9 9 10 11 10 8 7 8 8 8 8 7 7
16 16 16 15 15 16 16 16 16 15 14 13 12 11 12 13 15 16 17 17 18 19 19 19 18 17 17 18 19 20 20 21 21 21 20 19 17 15 17 18 18 18 16 14 13 13 15 17 17 17 20 22 21 19 18 16 15 14 14 13 13 14 14 13 13 13 12 10 11 13 14 13 12 11 10 11 11 10 10 9 9 10 10 8 7
18 17 16 16 16 17 17 17 17 17 15 14 13 12 13 15 17 18 18 18 18 19 19 18 18 18 18 19 20 20 20 21 21 21 21 20 19 17 16 17 17 17 16 15 14 15 16 17 19 20 21 23 24 22 19 18 16 16 15 15 15 15 15 14 15 15 14 13 12 14 14 14 14 13 13 12 12 12 12 12 12 12 12 11 9
20 19 18 18 18 18 19 19 19 18 16 14 14 14 15 17 18 19 19 19 19 19 19 18 18 19 19 19 20 20 20 21 22 21 21 21 20 18 17 16 16 16 17 17 17 17 17 16 18 19 21 23 26 25 22 20 19 18 17 16 16 16 16 16 15 15 15 14 14 15 15 15 15 15 14 13 13 13 13 13 14 14 14 13 12
23 22 21 21 21 20 20 20 20 19 17 15 15 16 17 18 20 20 20 20 20 19 18 17 18 19 19 20 20 20 20 21 21 21 20 20 19 18 18 17 17 17 18 19 20 20 18 17 17 18 20 22 25 27 25 22 21 20 18 17 16 15 15 14 12 12 13 14 15 16 16 15 16 16 15 14 13 13 12 13 14 16 16 16 14
25 24 24 23 22 21 21 20 19 19 17 17 17 18 18 20 21 21 21 21 20 18 17 17 17 18 19 19 19 19 20 20 21 20 19 19 19 18 19 20 19 19 20 21 22 22 21 18 16 17 18 19 22 26 27 25 22 21 20 18 16 15 15 14 13 12 12 12 14 16 16 16 15 15 15 15 14 13 12 12 14 16 17 17 15
26 25 25 24 23 22 22 20 19 18 18 18 19 19 20 21 22 21 21 21 18 16 16 16 16 17 18 19 19 19 19 19 19 19 18 18 17 17 18 19 19 19 20 21 22 23 23 21 18 17 17 18 19 22 26 28 26 23 21 20 18 16 15 16 16 15 12 11 12 15 16 16 15 15 16 16 15 14 13 13 14 15 16 16 16
26 26 25 24 23 23 23 21 20 19 19 20 20 21 22 22 22 21 21 19 17 15 15 15 16 17 17 18 18 18 18 18 18 17 17 16 16 15 15 17 18 19 19 20 22 23 24 24 22 19 18 18 18 19 22 26 28 26 23 21 19 17 16 17 18 18 15 13 12 14 15 15 15 16 16 17 16 15 15 14 15 15 16 17 17
27 27 26 25 24 24 23 22 21 20 20 21 21 22 23 23 22 21 19 16 15 15 15 15 16 16 16 17 17 17 18 18 18 17 17 16 15 15 15 15 16 17 18 19 22 23 24 24 25 23 20 18 19 19 19 21 25 27 26 22 20 19 18 17 18 19 18 16 14 14 15 16 16 16 17 17 16 16 15 15 16 17 18 19 19
29 28 27 25 25 24 24 22 21 20 21 21 22 22 23 22 20 18 16 14 14 14 15 15 15 15 15 16 17 17 17 18 18 18 19 18 17 16 16 15 15 16 17 18 20 21 21 21 23 24 22 19 18 19 19 18 20 24 26 25 22 20 18 17 17 18 20 19 17 16 16 17 17 18 17 17 17 17 16 16 18 19 20 21 21
31 30 28 27 26 25 24 23 21 20 20 21 22 22 22 20 18 15 13 12 13 14 14 14 15 15 15 16 17 17 18 18 18 19 20 20 20 20 19 18 17 17 18 18 19 19 20 20 20 22 24 21 18 17 18 18 19 22 25 26 24 21 19 18 18 18 19 20 19 18 17 18 18 19 19 19 19 18 17 17 19 21 22 22 21
Wind_Direction
294 289 284 279 278 281 283 285 287 287 289 293 291 294 311 318 319 325 326 328 339 345 339 329 321 314 313 315 321 329 331 334 340 343 344 345 346 349 349 346 344 339 335 331 327 321 308 290 274 267 272 276 279 284 289 293 294 294 289 282 277 271 265 264 267 269 270 271 272 273 273 272 266 260 256 253 250 253 258 262 263 258 252 250 251
297 291 284 280 281 285 287 287 287 289 294 294 289 292 307 314 314 318 321 324 336 347 345 334 328 323 321 322 326 330 328 324 327 333 337 338 341 346 345 343 342 340 336 333 330 327 319 305 283 263 260 266 272 278 284 288 291 294 290 283 280 275 267 265 267 270 270 271 273 274 274 273 269 265 263 258 253 252 255 259 261 259 255 252 252
289 285 282 283 285 285 287 288 287 289 295 294 289 292 305 309 309 312 316 319 330 346 352 344 335 330 329 329 329 330 328 322 318 321 329 333 334 338 339 338 340 339 337 336 333 330 324 314 295 267 254 260 268 273 281 286 290 292 291 284 278 273 270 268 268 270 272 272 275 277 277 276 274 270 267 261 255 252 253 254 256 257 256 252 250
278 277 278 278 280 283 286 287 286 289 295 295 292 294 303 305 304 306 311 314 323 339 351 349 343 337 332 330 329 329 327 324 320 319 324 327 327 329 332 334 337 338 337 336 334 331 327 319 303 274 252 254 263 269 279 288 290 288 287 285 281 277 275 272 267 269 273 273 274 276 276 276 275 273 270 265 259 256 254 253 253 255 255 253 249
282 279 279 279 278 282 287 288 286 290 296 297 296 297 300 300 300 302 306 310 318 331 342 343 340 336 332 328 325 325 324 322 319 318 322 325 322 322 326 330 333 336 337 336 333 330 327 322 306 277 253 251 261 269 278 284 286 289 290 287 284 280 276 272 267 264 268 272 273 273 274 274 273 274 275 273 265 257 255 254 253 254 255 253 250
289 285 285 284 281 281 288 291 290 293 297 298 297 296 296 296 298 300 302 305 314 325 334 336 332 330 330 326 320 318 319 318 316 314 316 322 323 320 320 325 331 336 337 336 334 330 326 323 310 278 254 254 261 268 277 279 280 290 295 290 284 280 275 272 267 263 264 269 274 275 275 273 272 272 273 272 266 257 253 252 252 251 252 253 251
299 293 290 288 282 281 287 291 289 291 295 297 295 292 292 294 296 298 298 302 311 320 325 327 326 325 327 325 318 312 310 311 313 310 309 317 323 319 317 322 329 335 338 337 335 331 326 324 317 282 256 257 261 268 277 276 276 286 295 293 286 281 280 278 273 268 267 269 272 274 275 274 273 272 270 268 263 256 252 252 251 249 250 252 252
315 303 291 284 276 274 276 277 280 287 292 293 292 290 292 295 296 295 295 300 309 317 318 319 319 320 325 325 317 308 306 306 309 308 304 310 318 316 315 321 328 335 338 338 339 334 326 325 321 293 270 264 265 272 280 281 283 291 299 299 290 283 282 284 281 276 272 270 270 270 272 276 278 275 271 267 261 257 254 254 255 252 251 253 254
321 300 282 274 269 270 272 276 283 291 295 295 295 295 296 298 297 294 294 300 308 312 313 314 314 318 325 326 316 306 303 301 303 304 301 305 313 314 315 321 328 335 337 338 341 338 327 322 318 301 291 285 279 283 289 290 296 303 306 304 296 286 283 285 287 286 279 273 272 271 269 273 275 273 269 266 263 262 260 256 256 256 255 255 255
316 293 279 277 280 291 298 301 301 300 301 302 302 302 301 299 298 296 296 300 305 308 309 309 313 319 326 327 319 308 305 303 300 298 298 304 312 316 320 324 329 333 334 335 340 341 328 312 308 303 303 305 305 305 299 292 294 301 306 306 299 288 281 280 284 290 289 282 277 274 268 266 269 272 273 269 264 263 262 257 254 256 257 257 256
311 294 286 291 304 320 322 318 315 309 307 307 307 307 305 301 302 301 300 302 305 306 305 307 312 319 325 328 322 314 311 309 303 298 299 307 314 318 321 323 324 328 332 333 335 338 329 305 301 306 307 303 302 304 304 298 292 293 300 304 299 289 282 279 280 286 291 289 281 273 267 265 270 274 276 273 265 259 259 257 256 257 258 258 258
301 295 296 304 310 319 320 318 318 315 314 313 310 308 305 305 309 309 307 307 305 303 305 308 313 318 324 327 323 317 318 316 308 304 307 311 314 317 320 319 319 324 330 332 332 333 328 310 299 300 301 298 296 300 307 308 297 291 297 302 299 291 285 280 275 276 283 286 279 269 261 259 263 264 264 265 262 258 256 255 256 258 258 257 258
288 288 293 298 302 309 312 311 314 316 315 314 311 309 309 312 317 317 314 309 303 303 307 310 313 316 321 324 320 318 326 330 322 314 313 312 312 314 316 315 316 320 328 332 331 328 325 317 307 299 293 292 293 295 299 304 299 293 295 298 295 289 285 281 272 269 274 277 276 269 259 254 258 261 262 263 262 262 261 261 262 264 264 261 260
299 297 299 300 300 302 303 304 308 312 315 315 315 315 316 318 319 318 315 309 306 308 310 311 313 315 318 319 315 311 315 320 316 310 308 308 307 309 310 311 314 319 325 331 330 322 314 311 313 313 304 300 300 296 293 296 296 291 290 290 290 288 287 285 277 268 265 265 265 262 257 257 260 263 267 270 271 270 267 267 266 266 266 267 266
309 308 310 311 307 303 300 298 301 307 313 317 319 320 318 317 318 316 314 313 311 311 311 312 313 315 315 315 312 308 305 305 305 305 305 304 301 303 308 311 314 318 323 330 329 318 303 298 303 311 310 306 307 305 300 296 291 288 285 282 285 291 294 293 287 277 270 264 262 259 254 253 257 262 268 272 274 274 271 268 267 265 264 265 264
300 305 309 311 310 306 302 298 298 302 307 314 322 324 318 313 313 314 315 316 314 312 311 313 314 313 312 310 308 307 303 299 300 303 305 305 301 302 308 312 315 317 322 329 327 313 296 290 292 298 303 303 303 302 302 301 296 293 289 280 278 291 308 308 303 295 285 273 266 264 261 256 256 259 263 267 269 270 268 264 263 266 269 268 265
292 297 299 301 302 301 299 297 296 296 299 305 315 321 318 312 308 309 314 317 315 313 313 313 313 312 310 306 304 304 302 300 299 300 301 301 300 304 309 311 314 317 321 327 327 312 287 281 283 287 293 297 299 300 301 301 301 301 296 285 277 289 313 314 311 306 297 283 272 268 264 262 261 257 254 257 260 254 244 243 249 258 267 272 271
288 290 293 295 295 294 291 291 291 291 291 296 305 311 314 313 309 308 312 316 316 315 313 312 313 313 308 304 302 302 303 305 306 304 298 293 293 302 308 310 314 318 319 324 327 312 278 272 276 280 287 290 293 300 303 303 304 305 302 292 280 286 302 304 307 311 307 296 282 265 252 254 260 255 247 246 247 238 234 240 251 263 271 274 276
288 288 287 287 286 285 284 284 285 287 289 292 297 302 306 310 311 310 312 315 315 313 311 311 315 315 310 303 301 303 307 311 312 309 302 296 297 302 305 307 312 316 317 321 324 312 277 272 276 276 281 286 291 298 304 306 307 308 303 290 276 278 287 288 297 307 308 300 290 265 238 234 239 238 229 223 233 236 245 261 270 289 292 282 277
288 286 282 277 274 276 279 278 279 283 287 291 293 294 297 303 307 309 312 313 313 311 310 311 316 318 311 300 295 301 308 310 308 305 302 301 301 301 302 305 310 314 315 318 320 310 283 273 275 275 278 284 288 292 299 305 308 309 303 288 273 268 267 270 288 301 296 266 262 258 242 226 220 219 207 201 233 251 311 323 329 334 320 290 266
286 282 279 277 276 276 277 276 277 280 283 287 289 288 291 296 300 304 308 308 309 311 310 311 315 318 311 297 292 297 303 305 305 305 305 306 305 301 299 302 308 312 315 316 315 309 294 282 278 279 282 283 283 285 289 295 302 306 303 289 276 269 257 262 286 296 275 227 222 230 229 213 202 205 202 205 253 313 339 331 331 335 324 310 314
284 280 280 282 284 284 282 279 278 279 281 283 285 286 288 290 294 298 300 301 304 308 310 309 313 316 312 300 295 294 294 298 301 301 301 306 312 309 301 301 310 315 316 317 318 315 307 296 284 278 277 277 278 280 282 286 295 300 297 288 281 273 256 265 286 284 227 214 216 194 189 197 207 216 210 195 194 32 17 358 347 330 309 311 338
284 281 284 286 286 286 285 282 279 277 279 281 282 285 286 286 289 293 295 296 298 302 307 307 308 312 312 306 303 300 295 295 299 301 301 304 311 313 308 306 315 320 319 320 324 324 319 311 297 283 275 273 275 280 281 283 290 292 286 281 276 259 240 257 272 241 195 217 212 178 172 188 210 219 200 193 240 22 20 20 28 20 349 315 331
284 287 292 293 289 285 283 282 280 279 279 280 281 282 284 284 285 288 291 292 292 296 303 305 304 306 309 307 307 308 305 306 312 316 318 315 310 308 309 310 317 323 322 321 325 328 327 322 312 298 286 280 280 280 276 275 280 282 284 283 269 237 218 230 229 200 190 198 180 165 173 189 200 199 181 179 352 0 3 24 54 51 39 48 73
285 290 294 296 294 288 282 281 283 283 282 281 281 283 284 284 284 285 287 288 287 289 296 301 300 301 305 304 303 303 304 309 313 316 321 324 316 304 301 304 313 323 325 320 323 329 330 329 324 314 300 292 289 283 267 256 263 271 278 280 203 174 161 163 175 185 188 156 152 171 196 193 189 181 150 69 16 12 15 32 58 61 57 65 84
287 289 289 292 295 293 289 287 287 287 285 283 282 284 285 286 286 285 285 285 282 281 287 295 296 296 299 302 302 300 299 303 308 310 314 321 320 307 295 294 304 319 324 318 318 323 328 333 340 340 322 304 292 279 252 235 249 261 263 240 178 174 172 170 173 178 186 187 206 220 213 201 192 173 116 58 30 19 27 47 67 81 82 82 99
290 288 285 287 292 296 297 295 292 291 290 287 286 286 286 289 291 289 287 286 283 278 280 289 291 290 293 296 296 296 296 301 308 311 310 314 317 310 292 283 291 306 317 315 312 315 324 335 347 354 344 330 314 281 231 218 227 248 266 257 205 190 189 191 183 177 183 210 239 227 202 204 202 154 86 60 45 34 56 69 75 90 98 105 130
291 288 283 284 288 293 295 294 294 295 293 292 291 290 288 290 291 290 290 290 288 282 280 283 285 286 288 287 284 287 293 300 309 312 309 311 316 312 294 277 277 289 301 306 305 306 316 330 339 345 343 338 329 311 256 217 216 231 232 165 178 188 184 168 175 201 205 202 206 200 173 157 138 89 71 64 54 60 92 92 93 109 117 136 159
287 284 281 283 287 290 291 291 293 294 294 296 297 295 292 290 289 290 290 289 289 285 280 280 282 286 288 284 279 283 293 302 309 310 308 309 312 312 302 280 268 275 285 292 296 297 300 310 321 326 326 323 317 305 283 242 228 246 240 197 179 202 216 190 169 214 217 199 188 184 163 138 110 78 73 77 85 117 123 117 127 139 141 161 170
281 279 279 283 286 288 290 293 295 295 296 297 298 296 294 291 290 292 291 289 288 285 282 282 284 286 287 287 285 286 293 300 304 304 305 306 307 309 305 287 265 264 272 279 286 290 289 293 302 307 306 308 314 311 293 265 247 256 256 238 218 229 234 226 208 197 195 187 185 185 169 139 115 95 94 108 134 148 141 137 150 161 164 173 167
276 275 276 279 280 285 291 297 302 305 303 300 297 296 295 294 294 295 294 291 288 284 283 285 286 286 287 289 291 291 293 297 298 297 299 301 302 304 304 290 268 257 261 268 276 280 280 282 287 292 293 296 305 315 309 285 255 256 263 260 259 257 244 230 227 210 180 174 181 186 183 172 144 116 113 125 139 149 145 141 147 160 164 170 165
271 268 268 271 276 285 294 300 308 312 311 304 297 294 295 296 296 296 294 291 288 286 284 284 285 286 286 287 289 290 291 293 295 295 292 291 293 299 301 292 273 258 255 260 267 272 273 272 274 278 283 284 289 302 310 299 268 254 256 259 265 264 235 211 215 220 197 187 190 194 198 196 172 144 143 146 142 145 142 135 137 152 161 167 163
263 262 262 267 276 286 292 297 304 309 311 308 300 295 294 295 295 295 294 292 290 289 289 288 286 285 284 283 283 284 284 285 290 293 290 283 283 290 297 295 280 262 255 257 262 265 266 263 262 267 274 278 281 290 302 303 285 262 253 251 253 247 211 197 210 217 202 196 200 205 206 204 193 182 177 163 147 141 132 127 137 155 161 162 158
255 256 259 267 277 284 287 292 300 306 310 309 304 300 298 296 296 297 298 297 296 295 295 296 293 287 283 281 280 281 282 282 287 292 290 281 276 280 289 294 288 273 265 264 262 261 261 256 252 256 264 270 274 282 293 299 292 273 249 229 222 216 204 202 207 207 201 200 203 207 208 210 210 209 202 185 162 142 126 130 148 158 159 158 154
252 253 258 264 271 277 280 287 297 307 311 309 304 301 299 299 299 301 301 301 300 299 299 298 295 291 286 283 281 282 286 287 289 291 290 282 274 273 281 290 291 282 275 270 263 259 259 253 245 248 256 261 265 274 282 286 283 265 228 206 202 199 198 201 205 203 201 200 202 207 211 212 214 216 216 208 183 152 135 144 159 163 160 157 155
253 255 257 259 264 269 272 277 295 312 316 311 303 299 299 301 302 303 304 304 303 303 303 301 296 291 289 287 286 286 288 290 289 289 289 282 271 268 276 288 292 286 277 273 264 256 254 250 243 243 249 253 257 266 272 270 263 249 228 215 211 209 209 214 216 207 200 201 208 215 215 214 215 215 215 208 188 164 149 151 159 166 167 163 159
254 255 255 258 263 263 260 264 288 310 314 310 305 301 302 305 308 310 312 313 311 311 310 308 303 297 292 291 290 288 287 288 287 286 287 281 270 266 272 284 291 285 277 274 269 259 253 248 242 241 244 246 250 259 264 258 250 246 242 236 234 233 229 226 225 217 207 208 216 219 217 217 217 214 211 203 189 172 158 151 152 158 165 168 168
251 252 255 259 259 252 249 259 280 298 307 307 305 303 303 310 318 321 322 321 319 317 315 312 308 303 299 297 294 290 288 289 287 286 286 282 275 272 273 278 284 281 273 270 270 264 258 252 245 240 239 239 243 251 254 245 235 235 238 239 241 242 234 226 224 221 214 212 216 217 216 216 213 204 201 201 199 185 163 152 149 149 151 156 164
248 251 252 251 246 240 245 260 273 286 298 303 301 297 298 307 317 323 325 325 323 321 318 315 311 307 304 301 298 294 291 289 286 284 284 283 282 277 272 274 279 276 265 263 270 271 265 258 249 240 236 235 238 243 244 237 231 231 232 232 232 231 225 221 223 224 221 220 221 218 213 210 205 197 195 199 203 192 169 156 149 146 145 146 150
247 248 245 240 238 241 249 260 269 278 289 295 293 290 293 302 311 317 322 325 324 322 319 316 313 311 308 304 300 297 292 286 282 281 280 280 280 273 266 270 279 275 261 259 266 267 263 259 252 242 234 232 235 240 240 237 234 234 235 236 234 231 227 225 227 229 230 230 229 225 219 211 202 195 195 197 198 192 177 163 155 153 150 147 146
245 244 240 237 241 249 255 260 266 273 280 285 286 286 290 297 303 308 314 320 322 320 316 313 311 311 309 306 303 300 295 291 287 283 278 276 276 268 260 265 274 276 269 265 267 266 261 259 255 245 234 229 232 237 239 238 237 236 237 238 238 237 235 234 233 236 238 238 234 229 224 219 212 203 199 198 196 193 189 179 172 171 169 158 146
245 242 240 240 245 253 258 262 266 269 273 278 282 284 289 294 297 301 307 314 318 317 314 311 310 310 309 306 303 301 298 296 293 287 280 276 275 270 264 264 267 270 269 267 269 272 271 266 261 251 236 228 229 234 236 236 236 236 236 238 240 240 240 239 238 239 242 242 235 229 225 223 222 216 209 205 204 204 204 199 191 190 188 177 163
245 243 243 244 248 254 260 264 265 265 267 274 280 282 286 290 292 295 302 309 314 314 311 308 309 310 310 308 305 302 299 297 294 291 286 281 275 269 264 262 261 261 260 255 253 262 268 265 261 254 241 229 227 231 232 233 234 235 236 238 242 244 246 246 243 241 242 240 232 225 223 224 224 220 213 209 208 210 210 208 204 202 201 194 184
247 246 245 247 251 255 260 262 262 262 265 271 276 279 283 286 288 291 297 305 311 310 307 306 308 311 312 311 308 305 301 298 296 295 292 286 279 270 262 257 254 255 255 250 247 253 262 263 259 255 246 234 228 228 229 230 232 235 236 238 243 247 249 248 245 243 243 240 230 221 219 221 221 219 214 210 210 210 211 210 208 207 206 204 199
248 247 247 249 252 256 259 261 261 260 262 267 272 277 281 283 283 287 294 302 306 305 302 304 309 313 315 315 312 309 306 302 299 298 295 290 285 276 263 255 252 251 252 255 256 258 262 264 257 253 250 241 233 229 229 229 230 234 237 239 243 245 245 244 242 241 243 241 232 222 218 215 214 214 214 213 214 215 214 213 211 210 209 209 208
248 248 249 252 254 257 260 261 259 256 258 264 270 276 279 279 280 285 293 300 301 299 298 304 311 313 315 317 315 312 309 306 303 301 299 294 290 282 271 263 258 248 244 250 257 258 256 255 250 246 248 247 240 233 229 228 229 233 237 240 241 240 238 238 238 238 241 239 230 221 215 212 211 212 215 217 218 218 219 218 215 213 212 212 212
249 249 250 252 254 257 259 258 254 251 254 262 269 274 276 276 278 285 294 297 295 293 296 304 310 311 312 315 314 312 309 306 303 304 304 301 298 292 284 278 272 259 246 244 250 252 250 247 243 239 241 246 245 239 234 230 229 231 235 239 239 235 233 236 238 237 236 236 226 216 210 211 214 218 221 221 220 219 219 220 217 213 211 210 208
250 251 252 253 254 256 255 251 247 247 252 260 267 271 273 275 279 287 293 292 289 289 295 302 306 308 310 314 315 313 309 304 302 303 306 307 307 304 296 286 280 273 262 253 250 249 246 242 240 239 239 241 244 244 239 234 231 230 234 238 238 233 232 238 241 238 233 230 225 217 213 215 220 224 225 225 223 222 223 222 217 210 205 201 198
252 253 252 251 251 252 251 248 245 246 253 261 266 269 272 275 281 288 290 286 283 287 293 298 302 306 309 313 315 316 311 305 300 298 300 302 305 306 302 292 283 278 271 262 258 256 251 243 239 240 241 240 241 242 241 237 232 230 231 235 238 236 234 237 241 239 235 231 227 225 224 224 226 227 228 226 225 226 227 225 217 208 201 197 195
254 253 251 248 247 248 246 244 243 247 254 261 266 269 273 277 282 285 284 280 280 285 290 295 301 306 308 310 314 316 315 310 304 299 296 295 295 295 295 292 285 278 272 267 265 266 263 252 242 239 241 244 243 243 245 243 236 230 229 232 237 239 237 235 236 239 239 235 231 230 231 231 231 231 230 227 226 228 229 225 216 208 202 200 199
255 252 249 245 243 242 241 241 243 249 257 263 267 270 274 278 281 280 276 275 278 282 287 294 299 302 305 309 313 315 315 314 311 305 300 297 293 290 287 284 282 278 273 269 266 266 266 260 247 239 241 244 242 241 242 241 235 229 228 230 234 238 239 236 234 236 237 237 236 234 234 234 233 232 228 225 224 225 225 222 216 209 206 206 207